Clarksburg, WV

2:20 AM EDT on April 26, 2018 (GMT -0400)
Benedum

Weather History for KCKB - November, 2011

Change the Weather History Date:

Thursday, November 24, 2011

  Actual Average Record
Temperature  
Mean Temperature 38 °F -  
Max Temperature 45 °F 51 °F 76 °F (1931)
Min Temperature 30 °F 28 °F 5 °F (1956)
Degree Days  
Heating Degree Days 28    
Moisture  
Dew Point 32 °F    
Average Humidity 91    
Maximum Humidity 100    
Minimum Humidity 74    
Precipitation  
Precipitation 0.00 in - - ()
Sea Level Pressure  
Sea Level Pressure 30.32 in    
Wind  
Wind Speed 1 mph (WSW)    
Max Wind Speed 9 mph    
Max Gust Speed -    
Visibility 5 miles    
Events Fog    
Averages and records for this station are not official NWS values.
T = Trace of Precipitation, MM = Missing Value Source: NWS Daily Summary

Daily Weather History Graph

Daily Weather History Graph

Search for Another Location

Airport or City:

Astronomy

Nov. 24, 2011 Rise Set
Actual Time 7:14 AM EST 5:00 PM EST
Civil Twilight 6:44 AM EST 5:29 PM EST
Nautical Twilight 6:11 AM EST 6:02 PM EST
Astronomical Twilight 5:39 AM EST 6:34 PM EST
Moon 6:30 AM EST (11/24) 4:30 PM EST (11/24)
Length of Visible Light 10h 45m
Length of Day
9h 46m
Waning Crescent, 0% of the Moon is Illuminated
Nov 24
Waning Crescent
Nov 25
New
Dec 2
First Quarter
Dec 10
Full
Dec 17
Last Quarter

Hourly Weather History & Observations

Time (EST) Temp. Windchill Dew Point Humidity Pressure Visibility Wind Dir Wind Speed Gust Speed Precip Events Conditions
12:53 AM 34.0 °F - 32.0 °F 92% 30.27 in 6.0 mi Calm Calm - N/A   Clear
1:53 AM 33.1 °F - 30.9 °F 92% 30.27 in 6.0 mi Calm Calm - N/A   Clear
2:53 AM 33.1 °F - 32.0 °F 96% 30.27 in 7.0 mi Calm Calm - N/A   Clear
3:35 AM 33.8 °F - 30.2 °F 87% 30.26 in 2.5 mi Calm Calm - N/A   Clear
3:53 AM 32.0 °F - 30.0 °F 92% 30.27 in 0.8 mi Calm Calm - N/A   Clear
4:08 AM 32.0 °F - 30.2 °F 93% 30.27 in 0.2 mi Calm Calm - N/A Fog Fog
4:35 AM 32.0 °F - 30.2 °F 93% 30.28 in 1.5 mi Calm Calm - N/A   Clear
4:39 AM 32.0 °F - 30.2 °F 93% 30.28 in 3.0 mi Calm Calm - N/A   Clear
4:53 AM 32.0 °F - 30.0 °F 92% 30.30 in 2.5 mi Calm Calm - N/A   Clear
5:25 AM 30.2 °F - 28.4 °F 93% 30.29 in 1.2 mi Calm Calm - N/A   Clear
5:33 AM 30.2 °F - 28.4 °F 93% 30.30 in 0.2 mi Calm Calm - N/A Fog Light Freezing Fog
5:53 AM 30.9 °F - 28.9 °F 92% 30.32 in 0.5 mi Calm Calm - N/A Fog Light Freezing Fog
6:09 AM 30.2 °F - 28.4 °F 93% 30.31 in 1.2 mi Calm Calm - N/A   Clear
6:27 AM 30.2 °F - 30.2 °F 100% 30.32 in 3.0 mi Calm Calm - N/A   Mostly Cloudy
6:53 AM 30.9 °F - 28.9 °F 92% 30.34 in 5.0 mi Calm Calm - N/A   Scattered Clouds
7:53 AM 32.0 °F 28.7 °F 30.9 °F 96% 30.35 in 5.0 mi South 3.5 mph - N/A   Clear
8:13 AM 33.8 °F 28.6 °F 32.0 °F 93% 30.34 in 7.0 mi SSW 5.8 mph - N/A   Mostly Cloudy
8:53 AM 35.1 °F - 35.1 °F 100% 30.37 in 6.0 mi Calm Calm - N/A   Overcast
9:53 AM 37.0 °F 31.6 °F 35.1 °F 93% 30.38 in 7.0 mi WSW 6.9 mph - N/A   Overcast
10:53 AM 39.0 °F 32.8 °F 37.0 °F 93% 30.39 in 7.0 mi SW 9.2 mph - N/A   Overcast
11:53 AM 41.0 °F 35.2 °F 37.0 °F 86% 30.37 in 8.0 mi SW 9.2 mph - N/A   Overcast
12:53 PM 42.1 °F 37.1 °F 37.0 °F 82% 30.35 in 10.0 mi WSW 8.1 mph - N/A   Overcast
1:00 PM 42.8 °F 38.0 °F 37.4 °F 81% 30.35 in 10.0 mi WSW 8.1 mph - N/A   Mostly Cloudy
1:53 PM 44.1 °F 39.5 °F 37.9 °F 79% 30.36 in 10.0 mi West 8.1 mph - N/A   Scattered Clouds
2:53 PM 45.0 °F 40.6 °F 37.0 °F 74% 30.36 in 10.0 mi WSW 8.1 mph - N/A   Partly Cloudy
3:53 PM 45.0 °F 42.6 °F 37.0 °F 74% 30.35 in 10.0 mi West 4.6 mph - N/A   Clear
4:53 PM 42.8 °F 39.3 °F 35.6 °F 76% 30.34 in 10.0 mi WSW 5.8 mph - N/A   Clear
5:53 PM 39.9 °F - 36.0 °F 86% 30.36 in 10.0 mi Calm Calm - N/A   Clear
6:53 PM 39.0 °F - 36.0 °F 89% 30.35 in 10.0 mi Calm Calm - N/A   Clear
7:53 PM 37.0 °F - 35.1 °F 93% 30.34 in 6.0 mi Calm Calm - N/A   Clear
8:53 PM 35.1 °F - 34.0 °F 96% 30.33 in 4.0 mi Calm Calm - N/A   Clear
9:07 PM 35.6 °F - 33.8 °F 93% 30.31 in 0.8 mi Calm Calm - N/A   Clear
9:10 PM 35.6 °F - 33.8 °F 93% 30.31 in 4.0 mi Calm Calm - N/A Fog Patches of Fog
9:46 PM 33.8 °F - 33.8 °F 100% 30.31 in 0.5 mi Calm Calm - N/A Fog Fog
9:53 PM 33.1 °F - 32.0 °F 96% 30.33 in 5.0 mi Calm Calm - N/A Fog Clear
10:46 PM 32.0 °F - 30.2 °F 93% 30.32 in 0.2 mi Calm Calm - N/A Fog Fog
10:53 PM 32.0 °F - 30.9 °F 96% 30.33 in 0.2 mi Calm Calm - N/A Fog Fog
11:04 PM 30.2 °F - 30.2 °F 100% 30.32 in 0.2 mi Calm Calm - N/A Fog Light Freezing Fog
11:33 PM 32.0 °F - 30.2 °F 93% 30.31 in 2.5 mi Calm Calm - N/A   Mostly Cloudy
11:38 PM 30.2 °F - 30.2 °F 100% 30.31 in 5.0 mi Calm Calm - N/A   Scattered Clouds
11:53 PM 30.9 °F - 28.9 °F 92% 30.32 in 1.8 mi Calm Calm - N/A   Clear
11:58 PM 30.2 °F - 28.4 °F 93% 30.31 in 0.8 mi Calm Calm - N/A   Mist